FW6369 Weather Reports


Display with metric or nautical units.
time (UTC)temp
F
wind
direction
speed
MPH
gust
MPH
rain 1hr
in
rain 24hr
in
rain mn
in
humidity
%
barometer
mb
20260902061601 58 0 0.0 0.0 0.00 0.00 0.00 90 1016.6
20260902054557 59 0 0.0 0.0 0.00 0.00 0.00 89 1016.5
20260902053058 60 0 0.0 1.0 0.00 0.00 0.00 88 1016.6
20260902051606 60 0 0.0 0.0 0.00 0.00 0.00 88 1016.5
20260902050104 60 0 0.0 1.0 0.00 0.00 0.00 87 1016.6
20260902044602 60 0 0.0 0.0 0.00 0.00 0.00 84 1016.5
20260902043055 60 0 0.0 1.0 0.00 0.00 0.00 83 1016.4
20260902041601 61 0 0.0 0.0 0.00 0.00 0.00 82 1016.4
20260902040059 62 0 0.0 0.0 0.00 0.00 0.00 82 1016.2
20260902034600 62 0 0.0 0.0 0.00 0.00 0.00 82 1016.1
20260902033059 62 0 0.0 1.0 0.00 0.00 0.00 81 1016.1
20260902031606 62 0 0.0 0.0 0.00 0.00 0.00 79 1016.1
20260902030057 62 0 0.0 1.0 0.00 0.00 0.00 78 1015.8
20260902024559 63 0 0.0 1.0 0.00 0.00 0.00 76 1015.8
20260902023054 64 252 0.0 2.0 0.00 0.00 0.00 75 1016.0
20260902021613 65 0 0.0 2.0 0.00 0.00 0.00 73 1015.9
20260902020057 66 244 1.0 4.0 0.00 0.00 0.00 71 1015.7
20260902014557 67 236 1.0 5.0 0.00 0.00 0.00 69 1015.9
20260902013100 67 263 1.0 6.0 0.00 0.00 0.00 68 1015.8
20260902011556 68 252 0.0 8.0 0.00 0.00 0.00 67 1015.8
20260902010101 69 94 1.0 6.0 0.00 0.00 0.00 65 1015.7
20260902004558 68 252 1.0 8.0 0.00 0.00 0.00 65 1015.6
20260902003108 68 113 1.0 7.0 0.00 0.00 0.00 64 1015.6
20260902001556 69 230 1.0 5.0 0.00 0.00 0.00 63 1015.5
20260902000105 70 246 1.0 5.0 0.00 0.00 0.00 64 1015.4
20260901234559 71 261 0.0 4.0 0.00 0.00 0.00 62 1015.3
20260901233104 71 241 0.0 9.0 0.00 0.00 0.00 61 1015.4
20260901231604 72 123 0.0 7.0 0.00 0.00 0.00 61 1015.4
20260901230107 71 254 0.0 7.0 0.00 0.00 0.00 60 1015.3
20260901224559 70 244 2.0 7.0 0.00 0.00 0.00 59 1015.4
20260901223106 70 235 2.0 5.0 0.00 0.00 0.00 60 1015.5
20260901221557 70 257 1.0 6.0 0.00 0.00 0.00 58 1015.6
20260901220118 72 259 1.0 7.0 0.00 0.00 0.00 57 1015.4
20260901214601 73 273 1.0 6.0 0.00 0.00 0.00 57 1015.4
20260901213108 73 262 1.0 5.0 0.00 0.00 0.00 57 1015.4
20260901211558 71 261 1.0 10.0 0.00 0.00 0.00 60 1015.4
20260901204558 73 88 0.0 4.0 0.00 0.00 0.00 60 1015.4
20260901203056 71 0 0.0 5.0 0.00 0.00 0.00 62 1015.6
20260901201603 71 0 0.0 3.0 0.00 0.00 0.00 61 1015.7
20260901200055 73 239 0.0 2.0 0.00 0.00 0.00 59 1015.8
20260901194556 70 84 0.0 2.0 0.00 0.00 0.00 66 1015.8
20260901193058 69 0 0.0 3.0 0.00 0.00 0.00 65 1015.9
20260901191614 68 279 0.0 4.0 0.00 0.00 0.00 69 1016.1
20260901190055 67 254 1.0 4.0 0.00 0.00 0.00 69 1016.2
20260901184611 69 268 1.0 6.0 0.00 0.00 0.00 65 1016.2
20260901183059 70 0 0.0 2.0 0.00 0.00 0.00 68 1016.2
20260901181602 69 140 0.0 2.0 0.00 0.00 0.00 71 1016.2
20260901180055 67 0 0.0 4.0 0.00 0.00 0.00 72 1016.1
20260901174603 67 313 0.0 2.0 0.00 0.00 0.00 72 1016.1
20260901173056 67 246 0.0 2.0 0.00 0.00 0.00 73 1015.8
20260901171602 66 0 0.0 3.0 0.00 0.00 0.00 76 1015.6
20260901164608 65 0 0.0 2.0 0.00 0.00 0.00 78 1015.6
20260901163057 64 0 0.0 1.0 0.00 0.00 0.00 81 1015.5
20260901161614 62 0 0.0 3.0 0.00 0.00 0.00 83 1015.4
20260901160114 62 0 0.0 3.0 0.00 0.00 0.00 82 1015.5
20260901154600 62 0 0.0 0.0 0.00 0.00 0.00 83 1015.4
20260901153111 62 0 0.0 0.0 0.00 0.00 0.00 84 1015.3
20260901151604 60 0 0.0 0.0 0.00 0.00 0.00 88 1015.1
20260901150103 60 0 0.0 0.0 0.00 0.00 0.00 90 1015.1
20260901144555 59 0 0.0 0.0 0.00 0.00 0.00 90 1014.7
20260901143121 58 0 0.0 0.0 0.00 0.00 0.00 90 1014.5
20260901141559 58 0 0.0 0.0 0.00 0.00 0.00 90 1014.3
20260901134555 57 0 0.0 0.0 0.00 0.00 0.00 90 1014.0
20260901133101 57 0 0.0 0.0 0.00 0.00 0.00 91 1013.9
20260901131557 57 0 0.0 0.0 0.00 0.00 0.00 91 1013.8
20260901130103 57 0 0.0 1.0 0.00 0.00 0.00 91 1013.7
20260901124600 56 0 0.0 1.0 0.00 0.00 0.00 92 1013.6
20260901123117 56 0 0.0 1.0 0.00 0.00 0.00 92 1013.5
20260901121556 56 0 0.0 0.0 0.00 0.00 0.00 92 1013.4
20260901114603 56 0 0.0 1.0 0.00 0.00 0.00 92 1013.3
20260901113059 56 76 0.0 0.0 0.00 0.00 0.00 92 1013.2
20260901111609 55 0 0.0 0.0 0.00 0.00 0.00 93 1013.6
20260901110110 55 0 0.0 0.0 0.00 0.00 0.00 93 1013.9
20260901104601 55 0 0.0 0.0 0.00 0.00 0.00 93 1014.0
20260901103057 54 0 0.0 0.0 0.00 0.00 0.00 93 1013.9
20260901101606 54 0 0.0 0.0 0.00 0.00 0.00 94 1013.7
20260901100058 53 0 0.0 0.0 0.00 0.00 0.00 94 1013.6
20260901094558 52 0 0.0 1.0 0.00 0.00 0.00 94 1013.4
20260901093059 52 98 0.0 1.0 0.00 0.00 0.00 93 1013.5
20260901091600 52 0 0.0 1.0 0.00 0.00 0.00 93 1013.3
20260901090057 52 0 0.0 1.0 0.00 0.00 0.00 92 1013.3
20260901084556 53 0 0.0 1.0 0.00 0.00 0.00 93 1013.4
20260901083054 53 0 0.0 1.0 0.00 0.00 0.00 94 1013.3
20260901081600 53 0 0.0 1.0 0.00 0.00 0.00 92 1013.3
20260901080057 53 0 0.0 1.0 0.00 0.00 0.00 92 1013.4
20260901074558 53 92 0.0 1.0 0.00 0.00 0.00 92 1013.0
20260901073056 54 0 0.0 1.0 0.00 0.00 0.00 91 1013.0
20260901071600 54 0 0.0 0.0 0.00 0.00 0.00 91 1013.1
20260901064553 55 0 0.0 1.0 0.00 0.00 0.00 90 1013.1
20260901063106 56 0 0.0 0.0 0.00 0.00 0.00 90 1013.1